FW8242 Weather Reports


time (UTC)temp
F
wind
direction
speed
knots
gust
knots
rain 1hr
in
rain 24hr
in
rain mn
in
humidity
%
barometer
mb
20260502194538 74 239 1.7 6.1 0.00 0.04 0.00 85 859.4
20260502194037 74 224 0.0 4.3 0.00 0.04 0.00 86 859.5
20260502193538 74 255 0.9 4.3 0.00 0.04 0.00 85 859.6
20260502193035 74 298 0.9 5.2 0.00 0.04 0.00 86 859.5
20260502192534 74 255 0.0 2.6 0.00 0.04 0.00 85 859.7
20260502192030 74 255 0.0 3.5 0.00 0.04 0.00 85 859.7
20260502191529 74 215 0.0 3.5 0.00 0.04 0.00 85 859.7
20260502191033 74 215 0.0 1.7 0.00 0.04 0.00 84 859.8
20260502190526 74 215 0.0 0.9 0.00 0.04 0.00 84 859.9
20260502190030 74 215 0.0 1.7 0.00 0.04 0.00 84 860.0
20260502185522 74 215 0.0 5.2 0.00 0.04 0.00 85 860.0
20260502185021 73 215 0.9 5.2 0.00 0.04 0.00 86 860.2
20260502184522 73 198 0.0 1.7 0.00 0.04 0.00 86 860.2
20260502184021 73 200 0.0 1.7 0.00 0.04 0.00 85 860.3
20260502183517 73 200 0.0 1.7 0.00 0.04 0.00 85 860.4
20260502183016 73 203 0.0 4.3 0.00 0.04 0.00 85 860.5
20260502182517 73 208 0.9 4.3 0.00 0.04 0.00 86 860.6
20260502182013 74 146 1.7 4.3 0.00 0.04 0.00 84 860.6
20260502181511 74 166 1.7 4.3 0.00 0.04 0.00 84 860.7
20260502181013 74 222 0.0 7.0 0.00 0.04 0.00 84 860.6
20260502180508 74 196 1.7 7.0 0.00 0.04 0.00 83 860.7
20260502164044 73 203 0.9 7.0 0.00 0.04 0.00 84 861.5
20260502163543 73 206 3.5 7.0 0.00 0.04 0.00 83 861.5
20260502163042 73 178 1.7 6.1 0.00 0.04 0.00 83 861.5
20260502162540 73 150 1.7 6.1 0.00 0.04 0.00 83 861.5
20260502162039 72 156 1.7 5.2 0.00 0.04 0.00 83 861.4
20260502161537 72 199 2.6 5.2 0.00 0.04 0.00 83 861.5
20260502161036 72 194 1.7 4.3 0.00 0.04 0.00 83 861.4
20260502160534 72 198 0.9 4.3 0.00 0.04 0.00 82 861.4
20260502152027 70 192 0.9 3.5 0.00 0.04 0.00 84 861.6
20260502151520 70 192 0.9 2.6 0.00 0.04 0.00 85 861.5
20260502151018 70 192 0.9 3.5 0.00 0.04 0.00 85 861.4
20260502150516 69 188 0.9 2.6 0.00 0.04 0.00 86 861.5
20260502130542 60 67 3.5 5.2 0.00 0.04 0.00 89 860.7
20260502123533 0 0.0 0.0 0.00 0.04 0.00 860.4
20260502123032 0 0.0 0.0 0.00 0.04 0.00 860.3
20260502122530 0 0.0 0.0 0.00 0.04 0.00 860.3
20260502122028 0 0.0 0.0 0.00 0.04 0.00 860.3
20260502121528 0 0.0 0.0 0.00 0.04 0.00 860.2
20260502121027 0 0.0 0.0 0.00 0.04 0.00 860.2
20260502120524 0 0.0 0.0 0.00 0.04 0.00 860.2
20260502115525 0 0.0 0.0 0.00 0.04 0.00 860.2
20260502115019 0 0.0 0.0 0.00 0.04 0.00 860.2
20260502114519 0 0.0 0.0 0.00 0.04 0.00 860.1
20260502114017 0 0.0 0.0 0.00 0.04 0.00 860.1
20260502113516 0 0.0 0.0 0.00 0.04 0.00 860.0
20260502113017 0 0.0 0.0 0.00 0.04 0.00 860.0
20260502112512 0 0.0 0.0 0.00 0.04 0.00 859.9
20260502112011 0 0.0 0.0 0.00 0.04 0.00 859.9
20260502111510 0 0.0 0.0 0.00 0.04 0.00 859.9
20260502111009 0 0.0 0.0 0.00 0.04 0.00 859.8
20260502110508 0 0.0 0.0 0.00 0.04 0.00 859.8
20260502110005 0 0.0 0.0 0.00 0.04 0.00 859.7
20260502105504 0 0.0 0.0 0.00 0.04 0.00 859.7
20260502105003 0 0.0 0.0 0.00 0.04 0.00 859.6
20260502104503 0 0.0 0.0 0.00 0.04 0.00 859.6
20260502104059 0 0.0 0.0 0.00 0.04 0.00 859.6
20260502103558 0 0.0 0.0 0.00 0.04 0.00 859.6
20260502103105 0 0.0 0.0 0.00 0.04 0.00 859.6
20260502102556 0 0.0 0.0 0.00 0.04 0.00 859.6
20260502102053 0 0.0 0.0 0.00 0.04 0.00 859.6
20260502101616 0 0.0 0.0 0.00 0.04 0.00 859.6
20260502101051 0 0.0 0.0 0.00 0.04 0.00 859.6
20260502100549 0 0.0 0.0 0.00 0.04 0.00 859.6
20260502091034 0 0.0 0.0 0.00 0.04 0.00 859.6
20260502090532 0 0.0 0.0 0.00 0.04 0.00 859.6
20260502071517 62 69 2.6 3.5 0.00 0.04 0.00 93 860.3
20260502071017 62 49 1.7 3.5 0.00 0.04 0.00 93 860.4
20260502070515 62 69 1.7 3.5 0.00 0.04 0.00 93 860.5
20260502070021 62 71 1.7 3.5 0.00 0.04 0.00 93 860.5
20260502065514 62 71 0.9 3.5 0.00 0.04 0.00 93 860.5
20260502065017 62 71 1.7 3.5 0.00 0.04 0.00 93 860.5
20260502064526 62 71 1.7 3.5 0.00 0.04 0.00 93 860.5
20260502064012 62 76 1.7 4.3 0.00 0.04 0.00 93 860.7
20260502063515 62 74 1.7 4.3 0.00 0.04 0.00 93 860.7
20260502063012 62 68 1.7 4.3 0.00 0.04 0.00 93 860.8
20260502062512 62 71 0.9 3.5 0.00 0.04 0.00 93 860.8
20260502062010 62 63 1.7 3.5 0.00 0.04 0.00 93 860.8
20260502061509 62 72 1.7 3.5 0.00 0.04 0.00 93 860.8
20260502061008 62 65 1.7 4.3 0.00 0.04 0.00 93 860.9
20260502060507 62 79 1.7 4.3 0.00 0.04 0.00 93 860.9
20260502060009 62 71 1.7 3.5 0.00 0.04 0.00 93 860.9
20260502055506 62 85 0.9 4.3 0.00 0.04 0.04 93 860.9
20260502055007 62 80 1.7 4.3 0.00 0.04 0.04 93 861.0
20260502054505 62 58 1.7 4.3 0.00 0.04 0.04 93 860.9
20260502054009 62 66 2.6 4.3 0.00 0.04 0.04 93 861.0
20260502053505 62 66 2.6 4.3 0.00 0.04 0.04 93 861.1
20260502053005 62 69 1.7 3.5 0.00 0.04 0.04 93 861.0
20260502052505 62 78 1.7 3.5 0.00 0.04 0.04 93 861.1
20260502052005 62 74 1.7 3.5 0.00 0.04 0.04 93 861.1
20260502051506 62 67 1.7 3.5 0.00 0.04 0.04 93 861.1
20260502051005 62 89 1.7 3.5 0.00 0.04 0.04 93 861.2
20260502050504 62 76 1.7 3.5 0.00 0.04 0.04 93 861.2
20260502050004 62 80 0.9 3.5 0.00 0.04 0.04 93 861.2
20260502045504 62 65 1.7 4.3 0.00 0.04 0.04 93 861.3
20260502045004 63 65 1.7 4.3 0.00 0.04 0.04 93 861.3
20260502044504 63 70 1.7 4.3 0.00 0.04 0.04 93 861.4
20260502044005 63 75 0.9 4.3 0.00 0.04 0.04 93 861.5
20260502043503 63 68 2.6 4.3 0.00 0.04 0.04 93 861.5
20260502043008 63 67 0.9 4.3 0.00 0.04 0.04 93 861.5
20260502042504 63 65 0.9 4.3 0.00 0.04 0.04 93 861.5
20260502042004 63 55 0.9 3.5 0.00 0.04 0.04 94 861.6
20260502041503 63 60 0.9 2.6 0.00 0.04 0.04 94 861.5
20260502041005 64 76 0.9 1.7 0.00 0.04 0.04 94 861.6
20260502040504 64 76 0.9 1.7 0.00 0.04 0.04 94 861.6
20260502040010 64 76 0.0 2.6 0.00 0.04 0.04 94 861.6
20260502035502 64 76 0.0 2.6 0.00 0.04 0.04 94 861.6
20260502035002 64 76 1.7 2.6 0.00 0.04 0.04 94 861.5
20260502034502 64 77 0.9 3.5 0.00 0.04 0.04 94 861.6
20260502034001 64 66 1.7 3.5 0.00 0.04 0.04 95 861.4
20260502033600 64 69 1.7 3.5 0.00 0.04 0.04 95 861.4
20260502033100 64 76 0.9 3.5 0.00 0.04 0.04 95 861.3
20260502032559 64 74 1.7 3.5 0.00 0.04 0.04 95 861.2
20260502032101 64 57 1.7 3.5 0.00 0.04 0.04 94 861.2
20260502031558 64 67 0.0 2.6 0.00 0.04 0.04 95 861.1
20260502031057 64 65 0.0 2.6 0.00 0.04 0.04 95 861.0
20260502030556 65 74 0.0 2.6 0.00 0.04 0.04 95 860.9
20260502030055 65 72 0.9 2.6 0.00 0.04 0.04 95 860.9
20260502025555 65 71 0.0 1.7 0.00 0.04 0.04 95 860.8
20260502025054 65 71 0.0 1.7 0.00 0.04 0.04 95 860.8
20260502024554 65 69 0.0 1.7 0.00 0.04 0.04 95 860.6
20260502024054 65 69 0.0 1.7 0.00 0.04 0.04 95 860.5
20260502023553 65 69 0.0 1.7 0.00 0.04 0.04 95 860.5
20260502023057 66 69 0.0 1.7 0.00 0.04 0.04 95 860.4
20260502022553 66 69 0.0 1.7 0.00 0.04 0.04 95 860.2
20260502022052 66 69 0.0 1.7 0.00 0.04 0.04 95 860.2
20260502021553 66 69 0.0 0.9 0.00 0.04 0.04 95 860.1
20260502021057 66 69 0.0 0.9 0.00 0.04 0.04 95 860.0
20260502020553 66 69 0.0 0.9 0.00 0.04 0.04 95 859.9
20260502020052 67 69 0.0 0.0 0.00 0.04 0.04 95 859.8
20260502015552 67 69 0.0 0.0 0.00 0.09 0.04 95 859.7
20260502015052 67 69 0.0 0.9 0.00 0.09 0.04 95 859.8
20260502014557 67 69 0.0 2.6 0.00 0.09 0.04 95 859.6
20260502014051 67 69 0.9 2.6 0.00 0.09 0.04 95 859.5
20260502013555 67 212 0.0 0.0 0.00 0.09 0.04 95 859.4
20260502013057 67 212 0.0 0.9 0.00 0.09 0.04 95 859.3
20260502012551 67 212 0.0 1.7 0.00 0.09 0.04 95 859.2
20260502012051 67 212 0.0 1.7 0.00 0.09 0.04 95 859.1
20260502011608 67 212 0.0 0.0 0.00 0.09 0.04 95 859.0
20260502011051 67 212 0.0 0.0 0.00 0.09 0.04 95 858.9
20260502010552 67 212 0.0 0.0 0.00 0.09 0.04 95 858.9
20260502010050 67 212 0.0 0.0 0.00 0.09 0.04 95 858.8
20260502005550 67 212 0.0 0.9 0.00 0.19 0.04 95 858.7
20260502005052 67 212 0.0 0.9 0.00 0.19 0.04 94 858.6
20260502004600 67 212 0.0 0.0 0.00 0.19 0.04 94 858.6
20260502004049 68 212 0.0 0.0 0.00 0.19 0.04 94 858.5
20260502003549 68 212 0.0 0.9 0.00 0.19 0.04 95 858.4
20260502003050 68 212 0.0 2.6 0.00 0.19 0.04 95 858.4
20260502002549 68 212 0.0 2.6 0.00 0.19 0.04 95 858.4
20260502002051 68 212 0.0 0.9 0.00 0.19 0.04 94 858.2
20260502001549 68 212 0.0 3.5 0.00 0.19 0.04 94 858.0
20260502001049 68 211 0.9 4.3 0.00 0.19 0.04 94 858.1
20260502000551 68 221 0.9 5.2 0.00 0.19 0.04 94 858.1
20260502000106 68 192 1.7 4.3 0.00 0.19 0.04 94 858.0
20260501235550 69 169 1.7 4.3 0.00 0.30 0.04 94 857.8
20260501235051 69 142 0.9 2.6 0.00 0.30 0.04 94 857.8
20260501234548 69 142 0.0 4.3 0.00 0.30 0.04 94 857.7
20260501234048 69 142 0.9 4.3 0.00 0.30 0.04 94 857.6
20260501233548 69 175 1.7 4.3 0.00 0.30 0.04 93 857.5
20260501233048 70 176 0.0 2.6 0.00 0.30 0.04 93 857.5
20260501232548 70 176 0.0 1.7 0.01 0.30 0.04 93 857.4
20260501232050 70 176 0.0 4.3 0.01 0.30 0.04 93 857.5
20260501231552 70 176 0.9 6.1 0.02 0.30 0.04 93 857.3
20260501231048 70 176 0.9 4.3 0.04 0.30 0.04 93 857.2
20260501230549 71 181 0.0 2.6 0.04 0.30 0.04 93 857.2
20260501230050 70 181 0.0 7.8 0.04 0.30 0.04 93 857.1
20260501225547 70 207 0.9 7.8 0.04 0.30 0.04 93 857.2
20260501225046 71 198 0.0 3.5 0.04 0.30 0.04 93 856.9
20260501224557 71 198 1.7 3.5 0.04 0.30 0.04 93 857.1
20260501224046 71 190 0.0 1.7 0.04 0.30 0.04 93 857.0
20260501223549 71 103 0.0 1.7 0.04 0.30 0.04 92 856.8
20260501223045 72 65 0.0 0.9 0.04 0.30 0.04 92 857.0
20260501222545 72 65 0.0 0.9 0.03 0.28 0.03 92 857.2
20260501222047 72 65 0.0 0.9 0.03 0.28 0.03 92 857.1
20260501221602 72 65 0.0 0.9 0.02 0.28 0.02 91 857.1
20260501221048 72 65 0.0 2.6 0.00 0.26 0.00 90 857.2
20260501220543 72 65 0.9 2.6 0.00 0.26 0.00 90 857.2
20260501220048 72 275 0.0 1.7 0.00 0.26 0.00 89 857.3
20260501215544 72 254 0.0 0.0 0.00 0.26 0.00 90 857.2
20260501215043 73 254 0.0 0.0 0.00 0.26 0.00 89 857.2
20260501214542 73 254 0.0 0.9 0.00 0.26 0.00 89 857.2
20260501214041 73 254 0.0 0.9 0.00 0.26 0.00 88 857.2
20260501213541 72 254 0.0 1.7 0.00 0.26 0.00 88 857.3
20260501213042 72 212 0.0 0.9 0.00 0.26 0.00 88 857.4
20260501212540 72 213 0.0 1.7 0.00 0.26 0.00 89 857.4
20260501212040 72 213 0.0 4.3 0.00 0.26 0.00 88 857.5
20260501211540 73 211 0.0 4.3 0.00 0.26 0.00 87 857.4
20260501211039 73 233 0.0 1.7 0.00 0.26 0.00 87 857.5
20260501210539 73 234 0.0 1.7 0.00 0.26 0.00 87 857.5
20260501210040 73 207 0.0 2.6 0.00 0.26 0.00 87 857.4
20260501205539 73 208 0.0 1.7 0.00 0.26 0.00 86 857.5
20260501205038 73 208 0.0 2.6 0.00 0.26 0.00 86 857.5
20260501204539 73 208 0.0 4.3 0.00 0.26 0.00 86 857.5
20260501204039 74 209 0.0 4.3 0.00 0.26 0.00 86 857.6
20260501203539 74 190 1.7 5.2 0.00 0.26 0.00 85 857.6
20260501203036 73 230 0.9 5.2 0.00 0.26 0.00 85 857.7
20260501202534 73 216 0.0 3.5 0.00 0.26 0.00 86 857.7
20260501202033 73 161 0.0 6.1 0.00 0.26 0.00 86 857.8
20260501201532 73 162 1.7 6.1 0.00 0.26 0.00 86 857.9
20260501201033 73 180 0.9 6.1 0.00 0.26 0.00 86 858.0
20260501200531 73 207 0.9 3.5 0.00 0.26 0.00 86 858.1
20260501200030 73 190 0.0 3.5 0.00 0.26 0.00 87 858.2
20260501195531 73 190 0.9 3.5 0.00 0.26 0.00 86 858.1
20260501195030 73 175 0.9 4.3 0.00 0.26 0.00 85 858.2